Location: Unspecified
(0.0000°N, 0.0000°E)
Time: 16:31:10
(UTC+02:00)

Cosmos 2219 - Visible Passes

Search period start: 19 April 2014 00:00
Search period end: 29 April 2014 00:00
Orbit: 833 x 861 km, 71.1° (Epoch: 19 April)

Date Brightness Start Highest point End Pass type
(mag) Time Alt. Az. Time Alt. Az. Time Alt. Az.
19 Apr 4.9 05:23:35 10° NNE 05:28:30 30° ENE 05:33:25 10° SE visible
19 Apr 4.4 07:08:23 10° WNW 07:12:22 19° WSW 07:16:22 10° SSW visible
20 Apr 5.3 05:17:45 21° ESE 05:17:45 21° ESE 05:20:02 10° SE visible
20 Apr 4.5 07:00:01 19° WSW 07:00:01 19° WSW 07:03:06 10° SSW visible
